Etusivu
METAR-TAF:

METAR-TAF

Lentoasemat :

Lansing Municipal Airport

Lansing, Illinois, Yhdysvallat

Leveyspiiri: 41-32-24N, Pituuspiiri: 087-31-56W, korkeus merenpinnasta: 188 m

Tämänhetkinen sää

Tämä raportti tehtiin 17 minuuttia sitten, kello 10.35 UTC
Tuuli 10 kn etelästä
Lämpötila 7°C
Kosteus 87%
Ilmanpaine 1013 hPa
Näkyvyys: 16.1 km
Hajanaisia pilviä 6000 ft:n korkeudessa
Hajanaisia pilviä 7000 ft:n korkeudessa
Pilvistä 9000 ft:n korkeudessa

METAR: KIGQ 211035Z AUTO 17010KT 10SM SCT060 SCT070 OVC090 07/05 A2990 RMK AO2 T00720045

Aika: 04:52 (10:52 UTC)


TAF: puuttuu

Säähavainnot ja -ennusteet yli 4000 lentoasemalta (METAR- ja TAF-raportit).

Käytössä olevat sääasemat on merkitty karttaan keltaisilla ja punaisilla pisteillä.

Aseta hiiri pisteen päälle nähdäksesi sääaseman nimen.

Klikkaa sitten nähdäksesi säähavainnot ja -ennusteet.

Kartan vaihtaminen: klikkaa mustalla rastilla varustettuja vihreitä pisteitä, niin voit zoomata sisään; viivalla varustettua vihreää pistettä, niin voit zoomata ulos tai vihreitä nuolia, niin pääset viereisille kartoille.


METAR-TAF: